[[{"header":{"parameterUnit":"m.s-1","parameterCategory":1,"la1":30.2991,"la2":30.254,"lo1":-89.0895,"lo2":-89.0444,"dy":0.0017,"dx":0.0017,"nx":28,"ny":28,"refTime":"2025-01-08T03:00:00:Z","depth":0,"parameterNumber":2,"parameterNumberName":"U-component_of_WINDS"},"data":[0,0,0,0,0,0,0,0,0,0,0,0,0,0,0,0,0,0,0,0,0,0,0,0,0,0,0,0,0,0,0,0,0,0,0,0,0,0,0,0,0,0,0,0,0,0,0,0,0,0,0,0,0,0,0,0,0,0,-3.6626,-3.6626,0,-3.6672,-3.6673,-3.6673,-3.6557,-3.6554,-3.655,-3.6546,-3.6598,-3.6603,-3.6607,0,0,0,0,0,0,0,0,0,0,0,0,0,-3.6439,-3.6443,-3.6626,-3.6626,-3.6627,-3.6672,-3.6673,-3.6674,-3.6558,-3.6553,-3.6549,-3.6545,-3.6596,-3.6602,-3.6608,0,0,0,0,0,0,0,0,0,0,0,0,0,-3.6507,-3.6445,-3.6626,-3.6574,-3.657,-3.6672,-3.6673,-3.6674,-3.6559,-3.6553,-3.6548,-3.6543,-3.6594,-3.6601,-3.6608,-3.6763,0,0,-3.663,-3.6634,0,0,0,0,0,0,0,0,-3.6503,-3.6514,-3.6581,-3.6578,-3.6574,-3.6603,-3.6626,-3.6704,-3.656,-3.6563,-3.6546,-3.654,-3.6604,-3.661,-3.6631,-3.6765,-3.6768,-3.6631,-3.6635,-3.6639,-3.6641,0,0,0,0,0,0,0,-3.6499,-3.6511,-3.6644,-3.6583,-3.6578,-3.655,-3.6554,-3.664,-3.6614,-3.6563,-3.6554,-3.6561,-3.6601,-3.6625,-3.6632,-3.6768,-3.6631,-3.6637,-3.6642,-3.6645,-3.7031,-3.7037,0,0,0,0,0,0,-3.65,-3.6508,-3.6643,-3.6646,-3.6524,-3.6558,-3.6562,-3.6599,-3.6613,-3.661,-3.6566,-3.6556,-3.6615,-3.6623,-3.6633,-3.6814,-3.6638,-3.6645,-3.6649,-3.7025,-3.7032,-3.7039,0,0,0,0,0,0,-3.6496,-3.6513,-3.6641,-3.6575,-3.6589,-3.6567,-3.661,-3.6603,-3.6626,-3.6615,-3.6611,-3.6594,-3.6611,-3.6623,-3.6731,-3.6814,-3.6648,-3.6655,-3.7018,-3.7027,-3.7036,-3.7178,0,0,0,0,0,0,-3.6492,-3.6512,-3.657,-3.6577,-3.6593,-3.6738,-3.6615,-3.6608,-3.6639,-3.6626,-3.6641,-3.6638,-3.6608,-3.6721,-3.6738,-3.6821,-3.6661,-3.7011,-3.7022,-3.7033,-3.7166,-3.7191,-3.7212,0,0,0,0,0,-3.6485,-3.661,-3.6574,-3.6591,-3.6664,-3.6743,-3.6752,-3.6713,-3.6646,-3.6704,-3.6697,-3.6638,-3.6803,-3.6733,-3.6752,-3.6838,-3.7005,-3.7019,-3.7032,-3.7156,-3.7186,-3.7212,0,0,0,0,0,0,-3.6615,-3.661,-3.657,-3.67,-3.6722,-3.6723,-3.6795,-3.6747,-3.679,-3.6777,-3.6728,-3.6732,-3.685,-3.6855,-3.6777,-3.6988,-3.6892,-3.691,-3.698,-3.7009,-3.7032,-3.7028,-3.6667,0,0,0,0,0,-3.6659,-3.6722,-3.6714,-3.6829,-3.6843,-3.6818,-3.685,-3.6818,-3.684,-3.685,-3.685,-3.6875,-3.6932,-3.6971,-3.7023,-3.7166,-3.7168,-3.7235,-3.7258,-3.7277,-3.7293,-3.7369,-3.7398,-3.7083,-3.7083,-3.7082,0,0,-3.675,-3.6754,-3.6797,-3.6855,-3.6869,-3.6936,-3.6826,-3.6902,-3.6952,-3.6862,-3.6963,-3.6965,-3.6989,-3.7116,-3.7171,-3.7123,-3.738,-3.7294,-3.731,-3.7315,-3.7385,-3.7415,-3.7442,-3.7092,-3.709,-3.7089,0,0,-3.6949,-3.696,-3.7056,-3.7072,-3.7094,-3.7076,-3.71,-3.7108,-3.7105,-3.7206,-3.7139,-3.7198,-3.7298,-3.7318,-3.7341,-3.7548,-3.7495,-3.7567,-3.7687,-3.7762,-3.7787,-3.7808,-3.7882,-3.7909,-3.7582,-3.7583,-3.7583,0,-3.706,-3.7157,-3.7112,-3.7193,-3.722,-3.714,-3.7238,-3.7256,-3.7295,-3.7317,-3.7262,-3.7385,-3.7396,-3.7525,-3.7575,-3.7597,-3.7623,-3.7564,-3.7786,-3.7808,-3.7828,-3.7897,-3.7925,-3.7591,-3.759,-3.7589,-3.7589,0,-3.7292,-3.7361,-3.7437,-3.7474,-3.751,-3.7599,-3.7569,-3.7611,-3.7576,-3.7565,-3.7669,-3.7679,-3.7731,-3.776,-3.7727,-3.7885,-3.7854,-3.7794,-3.7697,-3.7867,-3.7931,-3.7958,-3.7604,-3.76,-3.7598,-3.7596,0,0,-3.7575,-3.7586,-3.7614,-3.763,-3.7648,-3.7701,-3.7787,-3.7836,-3.7874,-3.7903,-3.7974,-3.806,-3.8004,-3.803,-3.7999,-3.8065,-3.8228,-3.7996,-3.7996,-3.8038,-3.8402,-3.8446,-3.8478,-3.8193,-3.8197,-3.8201,-3.8399,0,-3.7772,-3.7917,-3.7879,-3.8024,-3.8086,-3.8012,-3.8086,-3.8106,-3.8098,-3.8151,-3.8141,-3.8203,-3.8125,-3.814,-3.8201,-3.8195,-3.83,-3.818,-3.8258,-3.8262,-3.8254,-3.8512,-3.856,-3.8746,-3.8424,-3.8429,-3.8432,0,-3.802,-3.8058,-3.8209,-3.8216,-3.8241,-3.8308,-3.8351,-3.8402,-3.8423,-3.8412,-3.8442,-3.8398,-3.8483,-3.8386,-3.8502,-3.8422,-3.8452,-3.8453,-3.846,-3.8465,-3.8357,-3.8524,-3.8804,-3.8832,-3.8471,-3.8468,-3.8465,0,-3.8211,-3.8299,-3.84,-3.8416,-3.8428,-3.8477,-3.8484,-3.8499,-3.8532,-3.8569,-3.859,-3.8638,-3.8664,-3.8702,-3.8673,-3.8604,-3.8794,-3.8694,-3.8788,-3.8789,-3.8831,-3.8829,-3.912,-3.8852,-3.8851,-3.8851,-3.885,0,-3.8434,-3.8529,-3.8486,-3.8549,-3.8653,-3.8609,-3.8714,-3.8713,-3.8727,-3.8789,-3.8728,-3.8787,-3.8744,-3.88,-3.8777,-3.8877,-3.889,-3.8884,-3.8877,-3.8889,-3.889,-3.8908,-3.8894,-3.8858,-3.8856,-3.8855,-3.8854,0,-3.8665,-3.8639,-3.8745,-3.8746,-3.8749,-3.8826,-3.8827,-3.8886,-3.8872,-3.8951,-3.8967,-3.8947,-3.901,-3.8984,-3.905,-3.9035,-3.9163,-3.9139,-3.9156,-3.9149,-3.9244,-3.9235,-3.9557,-3.9597,-3.9303,-3.9306,-3.9308,0,-3.8809,-3.888,-3.8888,-3.8924,-3.8935,-3.8995,-3.9027,-3.8986,-3.9023,-3.9052,-3.9107,-3.9164,-3.9207,-3.9311,-3.9303,-3.9353,-3.933,-3.9439,-3.9337,-3.9347,-3.9331,-3.9327,-3.9334,-3.9459,-3.9463,-3.9465,-3.9468,0,-3.9067,-3.905,-3.9098,-3.9143,-3.9182,-3.9216,-3.9244,-3.9277,-3.9238,-3.9282,-3.9344,-3.9378,-3.9445,-3.9503,-3.9547,-3.9555,-3.9506,-3.95,-3.9524,-3.9537,-3.9544,-3.9541,-3.9211,-3.9493,-3.949,-3.9488,-3.9487,-3.9486,-3.9258,-3.9317,-3.9332,-3.9388,-3.9405,-3.9432,-3.9486,-3.948,-3.9531,-3.9581,-3.9554,-3.9627,-3.9646,-3.9701,-3.9716,-3.9773,-3.973,-3.9766,-3.9775,-3.9784,-3.9796,-3.9535,-3.9781,-3.978,-3.978,-3.9779,-3.9778,0,-3.9513,-3.9518,-3.957,-3.961,-3.9654,-3.9602,-3.963,-3.9671,-3.9735,-3.9757,-3.98,-3.9872,-3.9927,-3.9923,-3.9974,-4.0021,-3.9999,-4.0036,-4.0032,-4.0034,-3.9832,-3.9805,-4.0052,-4.0052,-4.0052,-4.0052,-4.0052,-4.0052,-3.965,-3.9748,-3.9734,-3.9839,-3.9844,-3.9914,-3.9934,-3.996,-3.9976,-4.0059,-4.0104,-4.01,-4.0112,-4.0163,-4.0212,-4.0209,-4.0231,-4.0276,-4.0265,-4.0076,-4.0049,-4.0023,-3.9998,-4.0281,-4.0282,-4.0463,-4.0465,-4.0466]},{"header":{"parameterUnit":"m.s-1","parameterCategory":1,"la1":30.2991,"la2":30.254,"lo1":-89.0895,"lo2":-89.0444,"dy":0.0017,"dx":0.0017,"nx":28,"ny":28,"refTime":"2025-01-08T03:00:00:Z","depth":0,"parameterNumber":3,"parameterNumberName":"V-component_of_WINDS"},"data":[0,0,0,0,0,0,0,0,0,0,0,0,0,0,0,0,0,0,0,0,0,0,0,0,0,0,0,0,0,0,0,0,0,0,0,0,0,0,0,0,0,0,0,0,0,0,0,0,0,0,0,0,0,0,0,0,0,0,-1.0407,-1.0406,0,-1.028,-1.0279,-1.0277,-1.0204,-1.0204,-1.0203,-1.0203,-1.0074,-1.0071,-1.0068,0,0,0,0,0,0,0,0,0,0,0,0,0,-1.0586,-1.0583,-1.0407,-1.0406,-1.0404,-1.028,-1.0279,-1.0277,-1.0204,-1.0204,-1.0203,-1.0203,-1.0075,-1.0072,-1.0068,0,0,0,0,0,0,0,0,0,0,0,0,0,-1.0489,-1.0582,-1.0407,-1.0353,-1.0347,-1.0281,-1.0278,-1.0276,-1.0204,-1.0204,-1.0203,-1.0203,-1.0077,-1.0072,-1.0067,-1.0046,0,0,-1.0053,-1.0051,0,0,0,0,0,0,0,0,-1.0494,-1.0482,-1.0362,-1.0356,-1.0349,-1.0257,-1.0294,-1.0199,-1.0204,-1.0258,-1.0203,-1.0203,-1.0136,-1.0126,-1.0103,-1.004,-1.0035,-1.0052,-1.005,-1.0047,-1.0046,0,0,0,0,0,0,0,-1.0501,-1.0487,-1.0357,-1.0361,-1.0353,-1.0334,-1.032,-1.0276,-1.0201,-1.0254,-1.0248,-1.0234,-1.0132,-1.0108,-1.01,-1.0033,-1.0053,-1.0048,-1.0045,-1.0044,-0.9942,-0.9943,0,0,0,0,0,0,-1.0516,-1.0493,-1.0361,-1.0353,-1.0422,-1.0331,-1.0315,-1.0287,-1.0201,-1.0188,-1.0234,-1.0231,-1.0116,-1.0105,-1.0095,-1.0062,-1.0048,-1.0043,-1.004,-0.9942,-0.9942,-0.9943,0,0,0,0,0,0,-1.0521,-1.0505,-1.0366,-1.0421,-1.0402,-1.0329,-1.0298,-1.0285,-1.0261,-1.0187,-1.0173,-1.0223,-1.0116,-1.0102,-1.0058,-1.0056,-1.0041,-1.0037,-0.9942,-0.9942,-0.9943,-0.9997,0,0,0,0,0,0,-1.0526,-1.0507,-1.0499,-1.0422,-1.04,-1.0332,-1.0298,-1.0283,-1.0253,-1.0247,-1.0173,-1.016,-1.0114,-1.0065,-1.0053,-1.0049,-1.0033,-0.9942,-0.9942,-0.9942,-0.9995,-0.9999,-1.0003,0,0,0,0,0,-1.0533,-1.0521,-1.0499,-1.0483,-1.0388,-1.0332,-1.0319,-1.0266,-1.0253,-1.0243,-1.0195,-1.0162,-1.0059,-1.0062,-1.0047,-1.0042,-0.9942,-0.9942,-0.9942,-0.9994,-0.9999,-1.0003,0,0,0,0,0,0,-1.0601,-1.051,-1.0485,-1.0447,-1.0398,-1.032,-1.0306,-1.0274,-1.0227,-1.0224,-1.016,-1.0144,-1.0106,-1.007,-1.0075,-1.0015,-0.9996,-0.9994,-1.004,-1.0044,-1.0048,-1.0057,-1.0029,0,0,0,0,0,-1.0611,-1.0573,-1.0496,-1.047,-1.0447,-1.0381,-1.0355,-1.0318,-1.0264,-1.0243,-1.0192,-1.0141,-1.0096,-1.0069,-1.0024,-0.999,-0.9971,-0.9979,-0.9983,-0.9986,-0.9985,-0.9961,-0.9962,-0.9944,-0.9944,-0.9944,0,0,-1.0633,-1.0578,-1.0559,-1.0483,-1.044,-1.0401,-1.0364,-1.0326,-1.0296,-1.0237,-1.0192,-1.0153,-1.0092,-1.0052,-1.0032,-1.002,-0.9986,-0.9987,-0.999,-0.9986,-0.9961,-0.9963,-0.9965,-0.9944,-0.9944,-0.9944,0,0,-1.0652,-1.0608,-1.058,-1.0537,-1.0472,-1.0428,-1.0422,-1.0348,-1.0319,-1.0272,-1.0226,-1.0191,-1.0116,-1.0073,-1.0042,-1.0042,-1.0009,-1.003,-1.0049,-1.0027,-1.0028,-1.0029,-1.0026,-1.0027,-1.0028,-1.0028,-1.0028,0,-1.0687,-1.0627,-1.057,-1.0533,-1.05,-1.0444,-1.0414,-1.0376,-1.03,-1.0278,-1.0267,-1.017,-1.0125,-1.0073,-1.0072,-1.005,-1.0039,-1.0037,-1.0032,-1.0033,-1.0033,-1.003,-1.0029,-1.0031,-1.0031,-1.003,-1.003,0,-1.0671,-1.063,-1.0616,-1.0542,-1.0508,-1.0475,-1.0412,-1.0384,-1.035,-1.0307,-1.0259,-1.0203,-1.0144,-1.0129,-1.0097,-1.0072,-1.0066,-1.0045,-1.0024,-1.0038,-1.0034,-1.0033,-1.0035,-1.0034,-1.0033,-1.0032,0,0,-1.073,-1.0624,-1.0619,-1.0584,-1.0507,-1.0474,-1.0438,-1.038,-1.0355,-1.0305,-1.0272,-1.0209,-1.0187,-1.0151,-1.0113,-1.0094,-1.0094,-1.0073,-1.0071,-1.0077,-1.006,-1.0076,-1.0075,-1.0072,-1.0071,-1.0071,-1.0064,0,-1.0736,-1.0667,-1.0614,-1.0566,-1.0526,-1.0471,-1.0439,-1.0388,-1.0346,-1.0306,-1.026,-1.0215,-1.0192,-1.0169,-1.0148,-1.0098,-1.0089,-1.0098,-1.0039,-1.0038,-1.0054,-1.0074,-1.0091,-1.0087,-1.0063,-1.0062,-1.0062,0,-1.0734,-1.0683,-1.063,-1.0555,-1.0536,-1.0508,-1.0449,-1.0412,-1.0352,-1.0323,-1.0282,-1.0242,-1.02,-1.0184,-1.0124,-1.0132,-1.0104,-1.0076,-1.0075,-1.0066,-1.005,-1.0064,-1.0085,-1.0084,-1.006,-1.006,-1.006,0,-1.0778,-1.0697,-1.0654,-1.0626,-1.0538,-1.0519,-1.0482,-1.0422,-1.0389,-1.0338,-1.0315,-1.026,-1.023,-1.0188,-1.0133,-1.0127,-1.0078,-1.0058,-1.0051,-1.0053,-1.0043,-1.0044,-1.0058,-1.0028,-1.0028,-1.0028,-1.0028,0,-1.0789,-1.0758,-1.0672,-1.0646,-1.0609,-1.0548,-1.0513,-1.0471,-1.0418,-1.0381,-1.0332,-1.0298,-1.0229,-1.0187,-1.0144,-1.01,-1.0087,-1.0061,-1.005,-1.0065,-1.0068,-1.0045,-1.0043,-1.0028,-1.0028,-1.0028,-1.0028,0,-1.0832,-1.0774,-1.0722,-1.0643,-1.0622,-1.0598,-1.0529,-1.0501,-1.0456,-1.041,-1.0396,-1.0326,-1.0274,-1.0215,-1.0144,-1.0115,-1.0073,-1.0058,-1.0093,-1.0086,-1.0082,-1.0082,-1.0081,-1.0076,-1.0052,-1.0052,-1.0052,0,-1.0842,-1.0816,-1.0733,-1.0704,-1.0668,-1.0623,-1.0589,-1.0528,-1.0494,-1.0423,-1.0403,-1.0347,-1.0299,-1.0218,-1.016,-1.0105,-1.0087,-1.009,-1.0078,-1.0093,-1.0084,-1.0086,-1.0082,-1.0093,-1.0094,-1.0094,-1.0095,0,-1.0864,-1.0836,-1.0788,-1.073,-1.0691,-1.0642,-1.0592,-1.0572,-1.05,-1.0465,-1.041,-1.0373,-1.0299,-1.0243,-1.0181,-1.0142,-1.0106,-1.0099,-1.0094,-1.0108,-1.0129,-1.0115,-1.01,-1.0099,-1.0099,-1.0098,-1.0098,-1.0098,-1.0889,-1.0862,-1.0799,-1.0747,-1.0703,-1.0656,-1.0625,-1.0575,-1.0529,-1.0463,-1.043,-1.0375,-1.0314,-1.0226,-1.0188,-1.0144,-1.0133,-1.0126,-1.0124,-1.0123,-1.0126,-1.0137,-1.0133,-1.0133,-1.0133,-1.0132,-1.0132,0,-1.0906,-1.0862,-1.0815,-1.0745,-1.0704,-1.0674,-1.0616,-1.0583,-1.0536,-1.0482,-1.0435,-1.0371,-1.0317,-1.0254,-1.0196,-1.0172,-1.0154,-1.0159,-1.0159,-1.015,-1.0141,-1.015,-1.0174,-1.0174,-1.0174,-1.0174,-1.0174,-1.0174,-1.091,-1.0864,-1.0828,-1.0758,-1.0714,-1.066,-1.0629,-1.0585,-1.0541,-1.0472,-1.0426,-1.0386,-1.0328,-1.0264,-1.0212,-1.0195,-1.0175,-1.0184,-1.0162,-1.0155,-1.0151,-1.0148,-1.0156,-1.0181,-1.0181,-1.0175,-1.0175,-1.0175]}]]